Regional Weather Roundup
Issued by NWS

Home | Current Version | Previous Version | Text Only | Print | Product List | Glossary On
Versions: 1 2 3 4 5 6 7 8 9 10 11 12 13 14 15 16 17 18 19 20 21 22 23 24 25 26 27 28 29 30 31 32 33 34 35 36 37 38 39 40 41 42 43 44 45 46 47 48 49 50
000
ASUS43 KLSX 222307
RWRMO

WEATHER SUMMARY FOR MISSOURI
NATIONAL WEATHER SERVICE SPRINGFIELD MO
600 PM CDT FRI AUG 22 2014

NOTE: "FAIR" INDICATES FEW OR NO CLOUDS BELOW 12,000 FEET WITH NO
       SIGNIFICANT WEATHER AND/OR OBSTRUCTIONS TO VISIBILITY.
       CURRENT SKY AND/OR WEATHER CONDITIONS ARE NOT AVAILABLE FOR
       CHILLICOTHE AND FARMINGTON.

MOZ001>031-035>038-043-044-053-054-230000-
...NORTHERN AND WESTERN MISSOURI...

CITY           SKY/WX    TMP DP  RH WIND       PRES   REMARKS
KANSAS CTY INT CLOUDY    92  74  55 CALM      29.92R HX 101
KANSAS C DTWN  PTSUNNY   93  75  55 SE3       29.89R HX 104
LEE`S SUMMIT   PTSUNNY   91  78  65 E7        29.92R HX 106
ST JOSEPH      PTSUNNY   85  77  77 E10       29.89F HX  95
CHILLICOTHE      N/A     90  76  63 SW5       29.94R HX 101
KIRKSVILLE     PTSUNNY   88  78  72 S5        29.94F HX 101

$$
MOZ066>068-077>081-088>096-101>105-230000-
...SOUTHWEST MISSOURI...

CITY           SKY/WX    TMP DP  RH WIND       PRES   REMARKS
SPRINGFIELD    SUNNY     96  64  34 SW14      29.95S HX  98
JOPLIN         SUNNY     96  66  37 S17       29.95R HX  99

$$
MOZ032>034-039>042-045>050-055>058-069>072-230000-
...CENTRAL MISSOURI...

CITY           SKY/WX    TMP DP  RH WIND       PRES   REMARKS
COLUMBIA       MOSUNNY   93  76  57 S5        29.92F HX 105
JEFFERSON CITY MOSUNNY   97  75  49 CALM      29.90F HX 109
ROLLA          PTSUNNY   93  69  45 S6        29.93F HX  98
SEDALIA        MOSUNNY   94  76  55 S6        29.93R HX 106
WHITEMAN AFB   PTSUNNY   90  63  39 NE1       29.91R HX  90
OSAGE BEACH    MOSUNNY   97  73  46 E5        29.91S HX 107

$$
MOZ051-052-059>065-230000-
...EAST CENTRAL MISSOURI...

CITY           SKY/WX    TMP DP  RH WIND       PRES   REMARKS
ST LOUIS INTL  PTSUNNY   92  76  59 SW7       29.93F HX 104
SPIRIT OF STL  PTSUNNY   91  77  63 CALM      29.91F HX 104
ST CHARLES     PTSUNNY   89  77  67 S6        29.90F HX 101

$$
MOZ072>076-082>087-097>100-106>115-230000-
...SOUTH CENTRAL AND SOUTHEAST MISSOURI...

CITY           SKY/WX    TMP DP  RH WIND       PRES   REMARKS
CAPE GIRARDEAU MOSUNNY   89  78  70 S6        29.95S HX 103
FARMINGTON     MOSUNNY   93  73  52 SE6       29.97F HX 102
POPLAR BLUFF   PTSUNNY   90  75  61 SW7       29.94F HX 100
WEST PLAINS    PTSUNNY   91  71  51 S6        29.99F HX  97

$$



USA.gov is the U.S. government's official web portal to all federal, state and local government web resources and services.